SL-12 R/B(AUX MOTOR), 32280

Orbit data source: Space-Track

SL-12 R/B(AUX MOTOR), 32280 is space debris in HEO originally from a launch on Fri, 26 Oct 2007 UTC launched from the Tyuratam Missile And Space Complex (TTMTR). Debris objects in space refer to the collection of defunct objects orbiting the Earth. Examples of debris include non-operational satellites, rocket bodies, and fragments generated from explosions, collisions, or faulty payload assembly.

Loading next visibility...
Identifier
32280, 2007-052F
Orbit
HEO
Country
Flag of CISCIS
Related business
Manufacturer
RKKE
Mission
Spacecraft
Bus & Motor
SOZ, Unknown motor
Mass
56 kg wet, 56 kg dry
Launch date (UTC)
2007-10-26 (19 years ago)
Launch vehicle
Unknown
Launch site
Tyuratam Missile And Space Complex (TTMTR)
Object type
Payload
Rocket body
Debris
Shape & HBR
Cyl, 0.6 m
Radar Cross Section
0.660 m², Medium (>0.1 m² and < 1m²)

Expand to show TLE details & history
Last TLE update: 21 hours ago

TLE from 21 hours ago
0 SL-12 R/B(AUX MOTOR)
1 32280U 07052F   26264.31293287  .00000015  00000-0  67178-4 0  9993
2 32280  65.0961 290.8353 5660798 214.1852  91.2652  4.21935129197073
Epoch: 2026-09-21T07:30Z
TLE epoch observation values (Epoch: 2026-09-21T07:30:37.399Z)
Latitude
0.00005°
Longitude
177.98873°
Altitude
14,305.768 km
Speed
3.729 km/s
True Right ascension
19h 23m 21s
True Declination
0° 00' 00"
Sunlit
Object was in daylight at epoch
Visualization orbit readout
Latitude
Unknown
Longitude
Unknown
Altitude
Unknown
Speed
Unknown
Apparent Right ascension
Unknown
Apparent Declination
Unknown
Sunlit
N/A
Visualization observer readout
Local Sidereal Time
21:06:44
Azimuth
Unknown
Elevation
Unknown
Doppler factor
Unknown
Orbital elements
Apogee altitude
18,954.963 km
Perigee altitude
641.01 km
Semi-major axis
16,176.123 km
Eccentricity
0.56608
Inclination
65.0961°
RAAN
290.8353°
Arg. of periapsis
214.1852°
True anomaly
145.8668°
Mean anomaly
91.2652°
Eccentric anomaly
119.49554°
Mean motion
1.05495 °/min
Orbital period
341.25 mins
BSTAR
0.000067178
Loading maneuver chart data...
Computing Atmospheric mass density...
Loading historical data...
Loading historical data...
Loading historical data...
Loading historical data...
Loading historical data...
Loading historical data...
Loading historical data...

Documentation

Showing up to 5 results
|